ONEWEB-0637, 56078

Orbit data source: Space-Track

ONEWEB-0637, 56078 is a payload satellite owned by One Web (NAA) (UK) in LEO that was launched on Sun, 26 Mar 2023 UTC via a LVM3 launch vehicle from the Sirharikota (SRI). Payloads include a variety of satellites, spacecraft, and rockets equipped with specific instruments for various scientific and technological missions. These include communications satellites like Starlink; space stations such as the ISS; scientific satellites like the Hubble; Earth observation satellites from companies like Planet Labs, Umbra, and HawkEye 360; GPS; miniature CubeSats for education and research; and military/defense satellites.

Loading next visibility...
ONEWEB-0637 details
Identifier
56078, 2023-043AJ
Orbit
LEO
Last TLE update18 hours ago
Origin
Flag of UKOne Web (NAA) (UK)
ManufacturerOne Web
MissionOperational Commercial Communications
Bus & MotorARROW, Unknown motor
Mass148 kg wet, ~140 kg dry
Launch date (UTC)
2023-03-26 (2 years ago)
Launch vehicle
LVM3
Launch site
Sirharikota (SRI)
Object type
Payload
Rocket body
Debris
Shape & HBRTrap Box + 2 Pan, 5 m
Radar Cross Section2.032 m², Medium (>0.1 m² and < 1m²)

Expand to show TLE details & history

TLE from 18 hours ago
0 ONEWEB-0637
1 56078U 23043AJ  25014.87524997  .00001314  00000-0  34566-2 0  9996
2 56078  87.9080   2.4205 0001858  79.1106 281.0233 13.15548829 88280
Epoch: 2025-01-14T21:00Z
Definitive object data (Epoch: 2025-01-14T21:00:21.597Z)
Latitude-0.00005°
Longitude-67.24516°
Altitude1,204.396 km
Speed7.252 km/s
True Right ascension00h 09m 40s
True Declination0° 00' 00"
Sunlit
Object was in daylight at TLE epoch
Visualization TLE readout
Latitude-79.55855°
Longitude-78.76729°
Altitude1,231.184 km
Speed7.238 km/s
Apparent Right ascension02h 42m 20s
Apparent Declination-63° 47' 05"
Sunlit
Object is in daylight
Visualization observer readout
Local Sidereal Time15:32:03
Azimuth166.983° S
Elevation-65.031°
Doppler factor1
Orbital elements
Apogee altitude1,200.289 km
Perigee altitude1,197.474 km
Semi-major axis7,577.019 km
Eccentricity0.0001858
Inclination87.908°
RAAN2.4205°
Arg. of periapsis79.1106°
True anomaly281.0024°
Mean anomaly281.0233°
Eccentric anomaly281.01285°
Mean motion3.29076 °/min
BSTAR0.0034566
Orbital period109.4 mins
Loading maneuver chart data...
Loading historical data...
Loading historical data...
Loading historical data...
Loading historical data...
Loading historical data...
Loading historical data...
Loading historical data...

ONEWEB-0637 Visibility forecast

Observer location: undefined°, undefined

Span
Click to sort rows by Start time (UTC) header in descending order
Start Az.
Max El. time (UTC)
Max El. Az.
Max El.
End time (UTC)
End Az.
12 mins2025-01-15 22:40:18.188Z145.884° SSE2025-01-15 22:46:18.188Z75.607° E33.928°2025-01-15 22:52:18.188Z15.542° NNE
11 mins2025-01-16 00:30:18.188Z222.184° SW2025-01-16 00:35:18.188Z274.826° WNW29.031°2025-01-16 00:41:18.188Z339.151° N
11 mins2025-01-16 10:08:18.188Z26.736° NE2025-01-16 10:13:18.188Z83.835° E28.289°2025-01-16 10:19:18.188Z141.193° SSE
12 mins2025-01-16 11:57:18.188Z341.7° N2025-01-16 12:02:18.188Z286.299° WNW34.636°2025-01-16 12:09:18.188Z209.625° SW
|